Aspen, CO

8:35 PM MDT on May 25, 2017 (GMT -0600)
Aspen-Pitkin County / Sardy Field

Weather History for KASE - January, 2013

Change the Weather History Date:

Friday, January 25, 2013

  Actual Average Record
Temperature  
Mean Temperature 32 °F 20 °F  
Max Temperature 38 °F 33 °F 46 °F (1981)
Min Temperature 25 °F 7 °F -5 °F (1988)
Degree Days  
Heating Degree Days 33 45  
Month to date heating degree days 1246 1128  
Since 1 July heating degree days 4496 4849  
Cooling Degree Days 0 0  
Month to date cooling degree days 0 0  
Year to date cooling degree days 0 0  
Moisture  
Dew Point 29 °F    
Average Humidity 88    
Maximum Humidity 100    
Minimum Humidity 76    
Precipitation  
Precipitation T in 0.03 in 0.20 in (2002)
Month to date precipitation 0.06 0.86  
Year to date precipitation 0.06 0.86  
Sea Level Pressure  
Sea Level Pressure 30.21 in    
Wind  
Wind Speed 2 mph (NNE)    
Max Wind Speed 8 mph    
Max Gust Speed 9 mph    
Visibility 8 miles    
Events Rain    
T = Trace of Precipitation, MM = Missing Value Source: NWS Daily Summary

Daily Weather History Graph

Daily Weather History Graph

Search for Another Location

Airport or City:

Trip Planner

Search our weather history database for the weather conditions in past years. The results will help you decide how hot, cold, wet, or windy it might be!

Date:

Astronomy

Jan. 25, 2013 Rise Set
Actual Time 7:19 AM MST 5:20 PM MST
Civil Twilight 6:51 AM MST 5:49 PM MST
Nautical Twilight 6:18 AM MST 6:21 PM MST
Astronomical Twilight 5:46 AM MST 6:53 PM MST
Moon 4:20 PM MST (1/25) 6:01 AM MST (1/25)
Length of Visible Light 10h 58m
Length of Day
10h 00m
Waxing Gibbous, 98% of the Moon is Illuminated
Jan 25
Waxing Gibbous
Jan 26
Full
Feb 3
Last Quarter
Feb 10
New
Feb 17
First Quarter

Hourly Weather History & Observations

Time (MST) Temp. Windchill Dew Point Humidity Pressure Visibility Wind Dir Wind Speed Gust Speed Precip Events Conditions
12:27 AM 30.2 °F - 28.4 °F 93% 30.32 in 5.0 mi Calm Calm - N/A   Overcast
12:46 AM 30.2 °F - 28.4 °F 93% 30.31 in 5.0 mi Calm Calm - N/A   Overcast
12:53 AM 30.0 °F 26.5 °F 28.9 °F 96% 30.23 in 5.0 mi SSE 3.5 mph - N/A   Overcast
1:19 AM 30.2 °F 26.7 °F 28.4 °F 93% 30.30 in 5.0 mi SE 3.5 mph - N/A   Overcast
1:53 AM 30.0 °F - 28.9 °F 96% 30.21 in 7.0 mi Calm Calm - N/A   Overcast
2:18 AM 30.2 °F - 28.4 °F 93% 30.29 in 7.0 mi Calm Calm - N/A   Overcast
2:53 AM 28.0 °F - 27.0 °F 96% 30.21 in 6.0 mi Calm Calm - N/A   Overcast
3:33 AM 26.6 °F - 24.8 °F 93% 30.27 in 3.0 mi Calm Calm - N/A   Overcast
3:53 AM 25.0 °F - 24.1 °F 96% 30.22 in 6.0 mi Calm Calm - N/A   Overcast
4:53 AM 27.0 °F - 26.1 °F 96% 30.22 in 10.0 mi Calm Calm - N/A   Overcast
5:21 AM 26.6 °F - 24.8 °F 93% 30.26 in 6.0 mi Calm Calm - N/A   Overcast
5:36 AM 26.6 °F - 26.6 °F 100% 30.26 in 8.0 mi Calm Calm - N/A   Overcast
5:46 AM 28.4 °F - 26.6 °F 93% 30.27 in 8.0 mi Calm Calm - N/A   Overcast
5:53 AM 28.0 °F - 26.1 °F 92% 30.24 in 7.0 mi Calm Calm - N/A   Overcast
6:53 AM 28.9 °F 25.2 °F 27.0 °F 92% 30.26 in 5.0 mi SSW 3.5 mph - N/A   Overcast
7:53 AM 30.0 °F - 27.0 °F 88% 30.26 in 7.0 mi Calm Calm - N/A   Overcast
8:53 AM 30.9 °F 27.5 °F 28.9 °F 92% 30.24 in 3.0 mi SE 3.5 mph - N/A   Overcast
9:00 AM 30.2 °F - 28.4 °F 93% 30.28 in 4.0 mi Calm Calm - N/A   Overcast
9:34 AM 32.0 °F 28.7 °F 28.4 °F 87% 30.28 in 9.0 mi South 3.5 mph - N/A   Overcast
9:53 AM 33.1 °F - 30.0 °F 89% 30.22 in 6.0 mi Calm Calm - N/A   Overcast
10:53 AM 34.0 °F 31.0 °F 30.0 °F 85% 30.22 in 10.0 mi NW 3.5 mph - N/A   Overcast
11:53 AM 36.0 °F 30.3 °F 30.9 °F 82% 30.19 in 7.0 mi North 6.9 mph - N/A   Overcast
12:53 PM 37.9 °F 33.5 °F 30.9 °F 76% 30.14 in 10.0 mi North 5.8 mph - N/A   Overcast
1:53 PM 37.9 °F 32.1 °F 30.0 °F 73% 30.12 in 10.0 mi North 8.1 mph - N/A   Overcast
2:53 PM 37.0 °F 32.4 °F 30.9 °F 79% 30.13 in 7.0 mi North 5.8 mph - N/A   Overcast
3:53 PM 37.0 °F 32.4 °F 30.9 °F 79% 30.16 in 7.0 mi NNE 5.8 mph - 0.00 in Rain Light Rain
4:53 PM 36.0 °F - 30.9 °F 82% 30.14 in 8.0 mi Calm Calm - 0.00 in   Overcast
5:53 PM 35.1 °F - 30.9 °F 85% 30.14 in 10.0 mi Calm Calm - N/A   Overcast
6:53 PM 34.0 °F - 30.9 °F 89% 30.14 in 10.0 mi Calm Calm - N/A   Overcast
7:53 PM 34.0 °F - 30.9 °F 89% 30.13 in 10.0 mi Calm Calm - N/A   Overcast
8:53 PM 34.0 °F 31.0 °F 30.9 °F 89% 30.13 in 10.0 mi NNW 3.5 mph - N/A   Overcast
9:53 PM 33.1 °F 30.0 °F 30.9 °F 92% 30.13 in 10.0 mi SE 3.5 mph - N/A   Overcast
10:00 PM 33.8 °F - 30.2 °F 87% 30.20 in 10.0 mi Calm Calm - N/A   Overcast
10:53 PM 33.1 °F - 30.9 °F 92% 30.11 in 10.0 mi Calm Calm - N/A   Overcast
11:23 PM 33.8 °F 29.6 °F 30.2 °F 87% 30.20 in 10.0 mi North 4.6 mph - N/A   Overcast
11:53 PM 33.1 °F - 30.9 °F 92% 30.09 in 10.0 mi Calm Calm - N/A   Overcast